When you browse on this site, cookies collect data to enhance your experience and personalize the content and advertising you see.
Visit our Privacy Policy to learn more. By continuing to use the site, you agree to this use of cookies and data.
  • In Spain
  • List of Countries
  • For 7 days
  • Water Temperature
  • Satellite Maps
  • Weather Map
  • Weather Widgets
  • user-avatar
    Login

    Hourly Weather Bahury

    Today, 25 May, Saturday

    Time Temperature Precipitation Wind Pressure Humidity
    00:00 +13°C° 0 mm 3 mps 741 mmHg 97%
    01:00 +13°C° 0 mm 3 mps 740 mmHg 98%
    02:00 +13°C° 0 mm 3 mps 740 mmHg 98%
    03:00 +13°C° 0 mm 3 mps 740 mmHg 97%
    04:00 +14°C° 0 mm 3 mps 740 mmHg 96%
    05:00 +14°C° 0 mm 3 mps 740 mmHg 96%
    06:00 +14°C° 0.6 mm 3 mps 739 mmHg 95%
    07:00 +16°C° 0.6 mm 3 mps 739 mmHg 94%
    08:00 +16°C° 0.6 mm 3 mps 739 mmHg 94%
    09:00 +16°C° 0.9 mm 3 mps 739 mmHg 93%
    10:00 +17°C° 0.9 mm 3 mps 739 mmHg 92%
    11:00 +18°C° 0.9 mm 2 mps 739 mmHg 91%
    12:00 +18°C° 0.4 mm 2 mps 739 mmHg 87%
    13:00 +19°C° 0.4 mm 2 mps 738 mmHg 84%
    14:00 +20°C° 0.4 mm 2 mps 738 mmHg 81%
    15:00 +20°C° 0.3 mm 2 mps 738 mmHg 81%
    16:00 +20°C° 0.3 mm 2 mps 738 mmHg 80%
    17:00 +21°C° 0.3 mm 2 mps 737 mmHg 80%
    18:00 +19°C° 0.6 mm 2 mps 737 mmHg 84%
    19:00 +17°C° 0.6 mm 2 mps 737 mmHg 88%
    20:00 +16°C° 0.6 mm 2 mps 737 mmHg 92%
    21:00 +15°C° 0 mm 2 mps 737 mmHg 93%
    22:00 +14°C° 0 mm 2 mps 737 mmHg 93%
    23:00 +13°C° 0 mm 3 mps 737 mmHg 94%

    Tomorrow, 26 May, Sunday

    Time Temperature Precipitation Wind Pressure Humidity
    00:00 +13°C° 0 mm 2 mps 738 mmHg 95%
    01:00 +12°C° 0 mm 2 mps 738 mmHg 95%
    02:00 +10°C° 0 mm 2 mps 738 mmHg 96%
    03:00 +10°C° 0 mm 2 mps 738 mmHg 96%
    04:00 +10°C° 0 mm 2 mps 738 mmHg 96%
    05:00 +10°C° 0 mm 2 mps 739 mmHg 95%
    06:00 +12°C° 0 mm 2 mps 739 mmHg 91%
    07:00 +12°C° 0 mm 3 mps 739 mmHg 87%
    08:00 +14°C° 0 mm 3 mps 739 mmHg 83%
    09:00 +16°C° 0 mm 3 mps 739 mmHg 76%
    10:00 +17°C° 0 mm 3 mps 739 mmHg 70%
    11:00 +17°C° 0 mm 4 mps 739 mmHg 63%
    12:00 +18°C° 0 mm 4 mps 739 mmHg 61%
    13:00 +19°C° 0 mm 4 mps 739 mmHg 59%
    14:00 +19°C° 0 mm 4 mps 739 mmHg 57%
    15:00 +19°C° 0 mm 4 mps 738 mmHg 59%
    16:00 +19°C° 0 mm 4 mps 738 mmHg 60%
    17:00 +18°C° 0 mm 4 mps 738 mmHg 62%
    18:00 +17°C° 0 mm 4 mps 738 mmHg 67%
    19:00 +14°C° 0 mm 3 mps 738 mmHg 73%
    20:00 +13°C° 0 mm 3 mps 739 mmHg 78%
    21:00 +13°C° 0 mm 2 mps 739 mmHg 83%
    22:00 +12°C° 0 mm 2 mps 739 mmHg 87%
    23:00 +10°C° 0 mm 2 mps 739 mmHg 91%

    Day after tomorrow, 27 May, Monday

    Time Temperature Precipitation Wind Pressure Humidity
    00:00 +10°C° 0 mm 2 mps 739 mmHg 89%
    01:00 +11°C° 0 mm 3 mps 739 mmHg 88%
    02:00 +11°C° 0 mm 3 mps 740 mmHg 86%
    03:00 +11°C° 0 mm 3 mps 740 mmHg 87%
    04:00 +11°C° 0 mm 3 mps 740 mmHg 87%
    05:00 +11°C° 0 mm 3 mps 740 mmHg 87%
    06:00 +12°C° 0 mm 4 mps 740 mmHg 82%
    07:00 +14°C° 0 mm 5 mps 740 mmHg 77%
    08:00 +15°C° 0 mm 5 mps 741 mmHg 72%
    09:00 +15°C° 0 mm 5 mps 741 mmHg 72%
    10:00 +16°C° 0 mm 5 mps 741 mmHg 73%
    11:00 +16°C° 0 mm 5 mps 741 mmHg 73%
    12:00 +16°C° 0.1 mm 5 mps 741 mmHg 73%
    13:00 +17°C° 0.1 mm 5 mps 741 mmHg 73%
    14:00 +17°C° 0.1 mm 5 mps 741 mmHg 73%
    15:00 +19°C° 0.2 mm 4 mps 741 mmHg 73%
    16:00 +20°C° 0.2 mm 4 mps 741 mmHg 73%
    17:00 +20°C° 0.2 mm 4 mps 741 mmHg 73%
    18:00 +19°C° 0.4 mm 4 mps 741 mmHg 79%
    19:00 +18°C° 0.4 mm 3 mps 741 mmHg 85%
    20:00 +17°C° 0.4 mm 3 mps 741 mmHg 90%
    21:00 +16°C° 0.1 mm 3 mps 741 mmHg 92%
    22:00 +14°C° 0.1 mm 3 mps 741 mmHg 93%
    23:00 +14°C° 0.1 mm 3 mps 742 mmHg 95%

    28 May, Tuesday

    Time Temperature Precipitation Wind Pressure Humidity
    00:00 +14°C° 0 mm 3 mps 742 mmHg 95%
    01:00 +13°C° 0 mm 3 mps 742 mmHg 95%
    02:00 +13°C° 0 mm 3 mps 742 mmHg 95%
    03:00 +13°C° 0 mm 3 mps 742 mmHg 95%
    04:00 +14°C° 0 mm 3 mps 742 mmHg 95%
    05:00 +14°C° 0 mm 3 mps 742 mmHg 95%
    06:00 +17°C° 0 mm 3 mps 742 mmHg 91%
    07:00 +19°C° 0 mm 3 mps 742 mmHg 87%
    08:00 +20°C° 0 mm 4 mps 742 mmHg 83%
    09:00 +21°C° 0.4 mm 4 mps 742 mmHg 77%
    10:00 +23°C° 0.4 mm 4 mps 742 mmHg 71%
    11:00 +25°C° 0.4 mm 5 mps 742 mmHg 66%
    12:00 +25°C° 0.3 mm 5 mps 742 mmHg 67%
    13:00 +25°C° 0.3 mm 4 mps 742 mmHg 69%
    14:00 +25°C° 0.3 mm 4 mps 742 mmHg 70%
    15:00 +23°C° 1.3 mm 4 mps 742 mmHg 77%
    16:00 +22°C° 1.3 mm 4 mps 742 mmHg 84%
    17:00 +20°C° 1.3 mm 4 mps 742 mmHg 90%
    18:00 +20°C° 1 mm 4 mps 742 mmHg 90%
    19:00 +20°C° 1 mm 4 mps 742 mmHg 90%
    20:00 +20°C° 1 mm 3 mps 742 mmHg 90%
    21:00 +19°C° 0 mm 3 mps 742 mmHg 90%
    22:00 +18°C° 0 mm 3 mps 742 mmHg 91%
    23:00 +17°C° 0 mm 3 mps 742 mmHg 91%

    29 May, Wednesday

    Time Temperature Precipitation Wind Pressure Humidity
    00:00 +17°C° 0 mm 3 mps 742 mmHg 92%
    01:00 +17°C° 0 mm 3 mps 742 mmHg 93%
    02:00 +17°C° 0 mm 3 mps 742 mmHg 93%
    03:00 +17°C° 0 mm 4 mps 741 mmHg 93%
    04:00 +17°C° 0 mm 4 mps 741 mmHg 93%
    05:00 +17°C° 0 mm 4 mps 741 mmHg 93%
    06:00 +18°C° 0 mm 4 mps 741 mmHg 87%
    07:00 +20°C° 0 mm 5 mps 741 mmHg 81%
    08:00 +21°C° 0 mm 6 mps 741 mmHg 75%
    09:00 +22°C° 0 mm 6 mps 741 mmHg 72%
    10:00 +23°C° 0 mm 6 mps 741 mmHg 69%
    11:00 +24°C° 0 mm 6 mps 741 mmHg 66%
    12:00 +24°C° 0 mm 6 mps 741 mmHg 66%
    13:00 +26°C° 0 mm 6 mps 741 mmHg 66%
    14:00 +26°C° 0 mm 6 mps 741 mmHg 66%
    15:00 +25°C° 0.9 mm 5 mps 741 mmHg 72%
    16:00 +25°C° 0.9 mm 4 mps 741 mmHg 78%
    17:00 +23°C° 0.9 mm 4 mps 741 mmHg 84%
    18:00 +22°C° 1.7 mm 3 mps 742 mmHg 86%
    19:00 +20°C° 1.7 mm 2 mps 742 mmHg 89%
    20:00 +20°C° 1.7 mm 1 mps 742 mmHg 91%
    21:00 +18°C° 0.6 mm 2 mps 743 mmHg 93%
    22:00 +17°C° 0.6 mm 2 mps 743 mmHg 95%
    23:00 +17°C° 0.6 mm 3 mps 743 mmHg 97%

    30 May, Thursday

    Time Temperature Precipitation Wind Pressure Humidity
    00:00 +16°C° 0.8 mm 3 mps 744 mmHg 97%
    01:00 +14°C° 0.8 mm 3 mps 744 mmHg 96%
    02:00 +13°C° 0.8 mm 3 mps 744 mmHg 96%
    03:00 +13°C° 0 mm 3 mps 745 mmHg 96%
    04:00 +13°C° 0 mm 3 mps 746 mmHg 95%
    05:00 +12°C° 0 mm 4 mps 747 mmHg 95%
    06:00 +13°C° 0 mm 4 mps 747 mmHg 87%
    07:00 +13°C° 0 mm 4 mps 748 mmHg 79%
    08:00 +13°C° 0 mm 4 mps 748 mmHg 71%
    09:00 +14°C° 0 mm 4 mps 748 mmHg 64%
    10:00 +17°C° 0 mm 3 mps 749 mmHg 56%
    11:00 +18°C° 0 mm 3 mps 749 mmHg 49%
    12:00 +18°C° 0 mm 3 mps 749 mmHg 46%
    13:00 +19°C° 0 mm 3 mps 749 mmHg 44%
    14:00 +19°C° 0 mm 3 mps 749 mmHg 42%
    15:00 +19°C° 0 mm 3 mps 749 mmHg 44%
    16:00 +19°C° 0 mm 2 mps 749 mmHg 46%
    17:00 +19°C° 0 mm 2 mps 748 mmHg 49%
    18:00 +17°C° 0 mm 2 mps 748 mmHg 55%
    19:00 +15°C° 0 mm 2 mps 748 mmHg 60%
    20:00 +13°C° 0 mm 1 mps 748 mmHg 66%
    21:00 +12°C° 0 mm 1 mps 748 mmHg 65%
    22:00 +12°C° 0 mm 1 mps 749 mmHg 64%
    23:00 +11°C° 0 mm 1 mps 749 mmHg 63%
    Show more